SAS2270 ESKS-EKCH

Flight info

Callsign SAS2270
Flight time 1h 3m
Altitude 38000
Route LOMLA DCT NEGIL DCT TOPLA L996 ERNOV
Aircraft A319/M-SDE3FGIJ1RWXY/LB1

Departure

Time 2026-05-05 16:31
Airport Scandinavian Mountains Airport (ESKS)

Arrival

Time 2026-05-05 17:35
Airport Copenhagen Kastrup Airport (EKCH)
Time Latitude Longitude Altitude Speed Heading
2026-05-05 16:13 61.15669 12.83932 1646 ft 0 kts 279°
2026-05-05 16:28 61.15674 12.83918 1646 ft 1 kts 315°
2026-05-05 16:28 61.15681 12.83929 1646 ft 4 kts 37°
2026-05-05 16:28 61.15702 12.84042 1647 ft 10 kts 64°
2026-05-05 16:29 61.15749 12.84193 1651 ft 13 kts 57°
2026-05-05 16:29 61.15750 12.84393 1651 ft 19 kts 134°
2026-05-05 16:29 61.15634 12.84545 1652 ft 20 kts 165°
2026-05-05 16:29 61.15536 12.84632 1651 ft 12 kts 79°
2026-05-05 16:30 61.15595 12.84611 1652 ft 11 kts 315°
2026-05-05 16:30 61.15620 12.84573 1652 ft 1 kts 326°
2026-05-05 16:30 61.15631 12.84557 1652 ft 3 kts 326°
2026-05-05 16:30 61.15645 12.84539 1652 ft 13 kts 327°
2026-05-05 16:31 61.15897 12.84198 1653 ft 73 kts 326°
2026-05-05 16:31 61.16491 12.83386 1647 ft 130 kts 326°
2026-05-05 16:31 61.17354 12.82197 1903 ft 156 kts 323°
2026-05-05 16:31 61.18232 12.80988 2861 ft 149 kts 324°
2026-05-05 16:32 61.19047 12.79686 3465 ft 156 kts 305°
2026-05-05 16:32 61.19251 12.77349 3777 ft 182 kts 263°
2026-05-05 16:32 61.18551 12.74942 4135 ft 216 kts 220°
2026-05-05 16:32 61.17231 12.73143 4824 ft 235 kts 214°
2026-05-05 16:33 61.15791 12.71456 5783 ft 240 kts 211°
2026-05-05 16:33 61.14289 12.69852 6792 ft 245 kts 211°
2026-05-05 16:33 61.12757 12.68236 7812 ft 249 kts 211°
2026-05-05 16:33 61.11191 12.66655 8855 ft 255 kts 203°
2026-05-05 16:34 61.09371 12.66406 9592 ft 280 kts 168°
2026-05-05 16:34 61.07508 12.67955 10189 ft 301 kts 155°
2026-05-05 16:34 61.05613 12.70174 10560 ft 326 kts 150°
2026-05-05 16:34 61.03639 12.72674 11181 ft 338 kts 150°
2026-05-05 16:35 61.01615 12.75187 12017 ft 342 kts 151°
2026-05-05 16:35 60.99534 12.77630 12902 ft 345 kts 153°
2026-05-05 16:35 60.97412 12.79977 13766 ft 348 kts 155°
2026-05-05 16:35 60.95276 12.82238 14519 ft 352 kts 155°
2026-05-05 16:36 60.93075 12.84510 15297 ft 355 kts 156°
2026-05-05 16:36 60.90851 12.86787 16065 ft 359 kts 156°
2026-05-05 16:36 60.88601 12.89089 16833 ft 363 kts 156°
2026-05-05 16:36 60.86329 12.91416 17593 ft 367 kts 156°
2026-05-05 16:37 60.84035 12.93774 18333 ft 371 kts 156°
2026-05-05 16:37 60.81710 12.96167 18935 ft 376 kts 157°
2026-05-05 16:37 60.79357 12.98591 19524 ft 382 kts 158°
2026-05-05 16:37 60.76967 13.01050 20097 ft 387 kts 159°
2026-05-05 16:38 60.74543 13.03541 20675 ft 392 kts 159°
2026-05-05 16:38 60.72087 13.06062 21240 ft 398 kts 160°
2026-05-05 16:38 60.69596 13.08616 21738 ft 403 kts 161°
2026-05-05 16:38 60.67059 13.11201 22145 ft 412 kts 163°
2026-05-05 16:39 60.64478 13.13826 22630 ft 418 kts 163°
2026-05-05 16:39 60.61834 13.16293 23149 ft 414 kts 171°
2026-05-05 16:39 60.59093 13.17834 23621 ft 404 kts 181°
2026-05-05 16:39 60.56339 13.18370 24060 ft 393 kts 192°
2026-05-05 16:40 60.53650 13.17976 24505 ft 384 kts 199°
2026-05-05 16:40 60.50987 13.17263 24960 ft 387 kts 199°
2026-05-05 16:40 60.48304 13.16550 25419 ft 390 kts 199°
2026-05-05 16:40 60.45602 13.15837 25852 ft 393 kts 199°
2026-05-05 16:41 60.42880 13.15126 26280 ft 396 kts 199°
2026-05-05 16:41 60.40137 13.14418 26706 ft 399 kts 199°
2026-05-05 16:41 60.37377 13.13714 27089 ft 400 kts 200°
2026-05-05 16:41 60.34617 13.13015 27585 ft 401 kts 200°
2026-05-05 16:42 60.31837 13.12310 28015 ft 403 kts 199°
2026-05-05 16:42 60.29044 13.11598 28429 ft 406 kts 199°
2026-05-05 16:42 60.26233 13.10875 28835 ft 409 kts 199°
2026-05-05 16:42 60.23405 13.10149 29223 ft 411 kts 199°
2026-05-05 16:43 60.20556 13.09420 29546 ft 414 kts 199°
2026-05-05 16:43 60.17684 13.08685 29872 ft 417 kts 199°
2026-05-05 16:43 60.14798 13.07953 30178 ft 420 kts 199°
2026-05-05 16:43 60.11891 13.07219 30465 ft 423 kts 198°
2026-05-05 16:44 60.08964 13.06480 30683 ft 425 kts 198°
2026-05-05 16:44 60.06032 13.05745 30998 ft 426 kts 198°
2026-05-05 16:44 60.03076 13.05004 31253 ft 428 kts 197°
2026-05-05 16:44 60.00161 13.04275 31588 ft 428 kts 197°
2026-05-05 16:45 59.97199 13.03540 31965 ft 428 kts 197°
2026-05-05 16:45 59.94241 13.02807 32333 ft 429 kts 197°
2026-05-05 16:45 59.91278 13.02069 32702 ft 429 kts 196°
2026-05-05 16:45 59.88314 13.01327 33071 ft 430 kts 196°
2026-05-05 16:46 59.85347 13.00581 33443 ft 430 kts 196°
2026-05-05 16:46 59.82377 12.99832 33821 ft 430 kts 195°
2026-05-05 16:46 59.79410 12.99091 34162 ft 428 kts 196°
2026-05-05 16:46 59.76459 12.98362 34556 ft 427 kts 195°
2026-05-05 16:47 59.73511 12.97638 34877 ft 427 kts 195°
2026-05-05 16:47 59.70560 12.96912 35162 ft 428 kts 195°
2026-05-05 16:47 59.67604 12.96182 35443 ft 429 kts 195°
2026-05-05 16:47 59.64640 12.95452 35729 ft 429 kts 195°
2026-05-05 16:48 59.61673 12.94721 36004 ft 430 kts 195°
2026-05-05 16:48 59.58703 12.93990 36269 ft 431 kts 195°
2026-05-05 16:48 59.55722 12.93257 36527 ft 432 kts 194°
2026-05-05 16:48 59.52739 12.92527 36754 ft 432 kts 194°
2026-05-05 16:49 59.49756 12.91805 37037 ft 432 kts 194°
2026-05-05 16:49 59.46767 12.91083 37303 ft 432 kts 194°
2026-05-05 16:49 59.43780 12.90362 37555 ft 433 kts 194°
2026-05-05 16:49 59.40792 12.89637 37790 ft 433 kts 194°
2026-05-05 16:50 59.34797 12.88186 37894 ft 434 kts 193°
2026-05-05 16:50 59.28811 12.86740 37899 ft 433 kts 193°
2026-05-05 16:51 59.22828 12.85296 37893 ft 432 kts 193°
2026-05-05 16:51 59.16859 12.83860 37904 ft 432 kts 193°
2026-05-05 16:52 59.10897 12.82441 37904 ft 432 kts 193°
2026-05-05 16:52 59.04974 12.81041 37915 ft 432 kts 193°
2026-05-05 16:53 58.99012 12.79627 37914 ft 432 kts 193°
2026-05-05 16:53 58.93045 12.78219 37884 ft 432 kts 194°
2026-05-05 16:54 58.87080 12.76812 37898 ft 432 kts 194°
2026-05-05 16:54 58.81115 12.75418 37914 ft 432 kts 194°
2026-05-05 16:55 58.75150 12.74033 37919 ft 432 kts 194°
2026-05-05 16:55 58.69183 12.72643 37927 ft 432 kts 194°
2026-05-05 16:56 58.63217 12.71259 37886 ft 432 kts 193°
2026-05-05 16:56 58.57250 12.69876 37911 ft 432 kts 193°
2026-05-05 16:57 58.51277 12.68493 37918 ft 432 kts 193°
2026-05-05 16:57 58.45303 12.67124 37923 ft 432 kts 193°
2026-05-05 16:58 58.39326 12.65760 37885 ft 432 kts 193°
2026-05-05 16:58 58.33358 12.64391 37937 ft 432 kts 193°
2026-05-05 16:59 58.27390 12.63030 37954 ft 432 kts 193°
2026-05-05 16:59 58.21429 12.61624 37953 ft 431 kts 194°
2026-05-05 17:00 58.15496 12.60049 37954 ft 430 kts 194°
2026-05-05 17:00 58.09573 12.58427 37954 ft 430 kts 194°
2026-05-05 17:01 58.03686 12.56861 37959 ft 430 kts 194°
2026-05-05 17:01 57.97711 12.55314 37957 ft 430 kts 194°
2026-05-05 17:02 57.92780 12.54040 37957 ft 430 kts 194°
2026-05-05 17:02 57.86848 12.52512 37957 ft 430 kts 194°
2026-05-05 17:03 57.79963 12.50719 37938 ft 430 kts 194°
2026-05-05 17:03 57.75000 12.49430 37949 ft 429 kts 194°
2026-05-05 17:04 57.69079 12.47907 37956 ft 429 kts 194°
2026-05-05 17:04 57.63206 12.46412 37910 ft 429 kts 194°
2026-05-05 17:05 57.60224 12.45649 37078 ft 436 kts 194°
2026-05-05 17:05 57.57193 12.44869 36161 ft 442 kts 194°
2026-05-05 17:05 57.54141 12.44089 35518 ft 442 kts 194°
2026-05-05 17:05 57.51093 12.43317 34781 ft 444 kts 195°
2026-05-05 17:06 57.48047 12.42550 34251 ft 440 kts 195°
2026-05-05 17:06 57.45019 12.41792 33275 ft 437 kts 195°
2026-05-05 17:06 57.42007 12.41038 32263 ft 433 kts 195°
2026-05-05 17:06 57.39098 12.40323 31968 ft 413 kts 195°
2026-05-05 17:07 57.36295 12.39631 31464 ft 400 kts 196°
2026-05-05 17:07 57.33580 12.38952 30979 ft 387 kts 196°
2026-05-05 17:07 57.30949 12.38288 30460 ft 378 kts 196°
2026-05-05 17:07 57.28348 12.37618 30039 ft 377 kts 196°
2026-05-05 17:08 57.25761 12.36952 29522 ft 374 kts 196°
2026-05-05 17:08 57.23223 12.36309 29067 ft 372 kts 196°
2026-05-05 17:08 57.20672 12.35667 28604 ft 369 kts 196°
2026-05-05 17:08 57.18138 12.35031 28147 ft 366 kts 196°
2026-05-05 17:09 57.15621 12.34406 27693 ft 364 kts 195°
2026-05-05 17:09 57.13071 12.34186 27239 ft 370 kts 186°
2026-05-05 17:09 57.10495 12.34648 26789 ft 373 kts 181°
2026-05-05 17:09 57.07928 12.35298 26336 ft 371 kts 181°
2026-05-05 17:10 57.05383 12.35938 25903 ft 368 kts 181°
2026-05-05 17:10 57.02854 12.36571 25464 ft 366 kts 180°
2026-05-05 17:10 57.00339 12.37198 25061 ft 363 kts 180°
2026-05-05 17:10 56.97839 12.37817 24655 ft 361 kts 180°
2026-05-05 17:11 56.95357 12.38426 24243 ft 359 kts 180°
2026-05-05 17:11 56.92878 12.39028 23852 ft 359 kts 180°
2026-05-05 17:11 56.90410 12.39628 23446 ft 357 kts 180°
2026-05-05 17:11 56.87959 12.40230 23011 ft 353 kts 180°
2026-05-05 17:12 56.85534 12.40828 22619 ft 350 kts 180°
2026-05-05 17:12 56.83127 12.41422 22233 ft 348 kts 180°
2026-05-05 17:12 56.80734 12.42015 21833 ft 346 kts 180°
2026-05-05 17:12 56.78359 12.42605 21435 ft 344 kts 180°
2026-05-05 17:13 56.75997 12.43189 20993 ft 341 kts 180°
2026-05-05 17:13 56.73652 12.43763 20613 ft 339 kts 181°
2026-05-05 17:13 56.71323 12.44328 20210 ft 337 kts 181°
2026-05-05 17:13 56.69007 12.44887 19792 ft 335 kts 180°
2026-05-05 17:14 56.66701 12.45443 19377 ft 333 kts 180°
2026-05-05 17:14 56.64408 12.46000 18957 ft 332 kts 180°
2026-05-05 17:14 56.62126 12.46555 18536 ft 330 kts 180°
2026-05-05 17:14 56.59853 12.47106 18104 ft 329 kts 180°
2026-05-05 17:15 56.57593 12.47655 17657 ft 326 kts 180°
2026-05-05 17:15 56.55349 12.48202 17251 ft 324 kts 180°
2026-05-05 17:15 56.53119 12.48744 16838 ft 322 kts 180°
2026-05-05 17:15 56.50903 12.49281 16427 ft 321 kts 180°
2026-05-05 17:16 56.48696 12.49814 16017 ft 319 kts 180°
2026-05-05 17:16 56.46499 12.50342 15589 ft 318 kts 179°
2026-05-05 17:16 56.44313 12.50866 15200 ft 316 kts 179°
2026-05-05 17:16 56.42137 12.51387 14802 ft 315 kts 179°
2026-05-05 17:17 56.39999 12.51897 14410 ft 314 kts 179°
2026-05-05 17:17 56.37811 12.52417 14005 ft 312 kts 179°
2026-05-05 17:17 56.35658 12.52930 13591 ft 311 kts 179°
2026-05-05 17:17 56.33515 12.53440 13173 ft 309 kts 178°
2026-05-05 17:18 56.31388 12.53950 12770 ft 307 kts 178°
2026-05-05 17:18 56.29274 12.54455 12386 ft 306 kts 178°
2026-05-05 17:18 56.27199 12.54950 12004 ft 304 kts 178°
2026-05-05 17:18 56.25104 12.55444 11616 ft 303 kts 178°
2026-05-05 17:19 56.23019 12.55933 11256 ft 301 kts 177°
2026-05-05 17:19 56.20959 12.56419 10988 ft 296 kts 177°
2026-05-05 17:19 56.18928 12.56900 10719 ft 293 kts 177°
2026-05-05 17:19 56.16908 12.57349 10468 ft 291 kts 181°
2026-05-05 17:20 56.14900 12.57409 10231 ft 288 kts 184°
2026-05-05 17:20 56.12897 12.57427 9987 ft 287 kts 184°
2026-05-05 17:20 56.10903 12.57448 9821 ft 287 kts 184°
2026-05-05 17:20 56.08910 12.57467 9687 ft 286 kts 184°
2026-05-05 17:21 56.06918 12.57486 9544 ft 286 kts 184°
2026-05-05 17:21 56.04928 12.57504 9405 ft 286 kts 184°
2026-05-05 17:21 56.02942 12.57520 9273 ft 285 kts 184°
2026-05-05 17:22 55.98977 12.57557 9027 ft 284 kts 183°
2026-05-05 17:22 55.96995 12.57580 8887 ft 285 kts 183°
2026-05-05 17:22 55.95017 12.57602 8695 ft 284 kts 183°
2026-05-05 17:22 55.93042 12.57624 8486 ft 284 kts 182°
2026-05-05 17:23 55.91067 12.57643 8292 ft 283 kts 182°
2026-05-05 17:23 55.89096 12.57663 8090 ft 283 kts 182°
2026-05-05 17:23 55.87144 12.57454 7888 ft 280 kts 192°
2026-05-05 17:23 55.85290 12.56485 7692 ft 277 kts 203°
2026-05-05 17:24 55.83484 12.55296 7498 ft 277 kts 203°
2026-05-05 17:24 55.81672 12.54117 7300 ft 277 kts 202°
2026-05-05 17:24 55.79862 12.52947 7102 ft 278 kts 202°
2026-05-05 17:24 55.78043 12.51773 6905 ft 277 kts 202°
2026-05-05 17:25 55.76226 12.50602 6705 ft 278 kts 202°
2026-05-05 17:25 55.75021 12.49824 6576 ft 279 kts 202°
2026-05-05 17:25 55.72582 12.48249 6307 ft 277 kts 201°
2026-05-05 17:25 55.70764 12.47076 6103 ft 279 kts 201°
2026-05-05 17:26 55.68951 12.45912 5904 ft 276 kts 200°
2026-05-05 17:26 55.67140 12.44752 5711 ft 277 kts 200°
2026-05-05 17:26 55.65328 12.43592 5511 ft 277 kts 200°
2026-05-05 17:26 55.63519 12.42434 5313 ft 277 kts 200°
2026-05-05 17:27 55.61706 12.41273 5118 ft 276 kts 200°
2026-05-05 17:27 55.59962 12.39860 4926 ft 276 kts 212°
2026-05-05 17:27 55.58462 12.37779 4778 ft 275 kts 222°
2026-05-05 17:27 55.57025 12.35559 4628 ft 274 kts 221°
2026-05-05 17:28 55.55593 12.33359 4498 ft 272 kts 221°
2026-05-05 17:28 55.54164 12.31172 4229 ft 270 kts 221°
2026-05-05 17:28 55.52766 12.29039 3943 ft 257 kts 221°
2026-05-05 17:28 55.51447 12.27030 3717 ft 243 kts 221°
2026-05-05 17:29 55.50075 12.25197 3718 ft 251 kts 205°
2026-05-05 17:29 55.48416 12.24577 3639 ft 239 kts 175°
2026-05-05 17:29 55.46887 12.25435 3119 ft 234 kts 142°
2026-05-05 17:29 55.45868 12.27599 2588 ft 226 kts 110°
2026-05-05 17:30 55.45602 12.30237 2109 ft 220 kts 82°
2026-05-05 17:30 55.45858 12.32776 1995 ft 204 kts 76°
2026-05-05 17:30 55.46112 12.35210 2004 ft 194 kts 77°
2026-05-05 17:30 55.46352 12.37553 2004 ft 198 kts 76°
2026-05-05 17:31 55.46700 12.39932 2002 ft 197 kts 64°
2026-05-05 17:31 55.47408 12.41968 1998 ft 194 kts 45°
2026-05-05 17:31 55.48359 12.43610 2000 ft 194 kts 40°
2026-05-05 17:31 55.49366 12.45186 2000 ft 194 kts 39°
2026-05-05 17:32 55.50380 12.46747 2005 ft 193 kts 39°
2026-05-05 17:32 55.51397 12.48309 1990 ft 194 kts 39°
2026-05-05 17:32 55.52415 12.49872 1824 ft 194 kts 39°
2026-05-05 17:32 55.53428 12.51429 1581 ft 193 kts 39°
2026-05-05 17:33 55.54434 12.52977 1319 ft 192 kts 39°
2026-05-05 17:33 55.55438 12.54521 1063 ft 190 kts 39°
2026-05-05 17:33 55.56401 12.56005 839 ft 176 kts 40°
2026-05-05 17:33 55.57294 12.57385 564 ft 163 kts 38°
2026-05-05 17:34 55.58112 12.58646 360 ft 150 kts 38°
2026-05-05 17:34 55.58871 12.59813 144 ft 139 kts 37°
2026-05-05 17:34 55.59578 12.60905 28 ft 128 kts 38°
2026-05-05 17:34 55.60208 12.61867 18 ft 118 kts 40°
2026-05-05 17:35 55.60751 12.62719 19 ft 87 kts 41°
2026-05-05 17:35 55.61141 12.63319 22 ft 64 kts 41°
2026-05-05 17:35 55.61430 12.63771 18 ft 48 kts 41°
2026-05-05 17:35 55.61617 12.64057 18 ft 25 kts 37°
2026-05-05 17:36 55.61806 12.64072 18 ft 31 kts 355°
2026-05-05 17:36 55.62000 12.64180 17 ft 25 kts 26°
2026-05-05 17:36 55.62138 12.64295 17 ft 10 kts 25°
2026-05-05 17:36 55.62149 12.64304 17 ft 0 kts 25°
2026-05-05 17:37 55.62150 12.64305 17 ft 0 kts 25°
2026-05-05 17:37 55.62154 12.64308 17 ft 2 kts 25°
2026-05-05 17:37 55.62197 12.64344 16 ft 9 kts 25°
2026-05-05 17:37 55.62270 12.64392 16 ft 14 kts 13°
2026-05-05 17:38 55.62391 12.64445 17 ft 20 kts
2026-05-05 17:38 55.62496 12.64268 19 ft 24 kts 302°
2026-05-05 17:38 55.62614 12.64278 17 ft 21 kts 29°
2026-05-05 17:38 55.62727 12.64364 17 ft 15 kts 27°
2026-05-05 17:39 55.62754 12.64452 17 ft 1 kts 99°
2026-05-05 17:39 55.62752 12.64469 17 ft 2 kts 101°
2026-05-05 17:39 55.62751 12.64479 17 ft 0 kts 101°
2026-05-05 17:39 55.62751 12.64481 17 ft 0 kts 101°